Location: Nelson
(41.2830°S, 173.2830°E)
Time: 13:52:24
(UTC+13:00)

SL-08 R/B - Pass Details

Date: 24 January 2019
Orbit: 946 x 994 km, 83.0° (Epoch: 13 October)

Event Time Altitude Azimuth Distance (km) Brightness Sun altitude
Exits shadow 22:43:00 15° 359° (N) 2,342 6.1 -17.1°
Maximum altitude 22:48:14 81° 85° (E) 979 4.4 -17.7°
Drops below altitude 10° 22:54:28 10° 171° (S) 2,726 7.4 -18.5°
Sets 22:57:00 0° 171° (S) 3,686 8.1 -18.8°
